Voltar ao catálogo

CZ-6A DEB

AtivoSSO
NORAD 54404·DEBRIS·🇨🇳 China

Lançado Nov 11, 2022 de Taiyuan Satellite Launch Center

Loading…

Próximas Passagens (próximas 24 horas)

TLE

AtualizadoSource: Space-Track

Época: Sep 14, 2026, 21:33 UTC

1 54404U 22151EC  26257.89827227  .00000625  00000-0  28847-3 0  9990
2 54404  98.7554 276.7058 0056072  85.7003 275.0580 14.23650649199056

Acompanhe CZ-6A DEB em tempo real com AllMySat

Download on the App Store